Regional Weather Roundup
Issued by NWS

Home | Current Version | Previous Version | Graphics & Text | Print | Product List | Glossary On
Versions: 1 2 3 4 5 6 7 8 9 10 11 12 13 14 15 16 17 18 19 20 21 22 23 24 25 26 27 28 29 30 31 32 33 34 35 36 37 38 39 40 41 42 43 44 45 46 47 48 49 50
000
ASUS45 KPSR 231610
RWRAZ

ARIZONA REGIONAL HOURLY WEATHER ROUNDUP
NATIONAL WEATHER SERVICE PHOENIX AZ
900 AM MST SUN NOV 23 2014

NOTE: FAIR INDICATES FEW OR NO CLOUDS BELOW 12,000 FEET WITH NO
SIGNIFICANT WEATHER AND/OR OBSTRUCTIONS TO VISIBILITY.

AZZ001>003-036-231700-
NORTHWEST ARIZONA

CITY           SKY/WX    TMP DP  RH WIND       PRES   REMARKS
BULLHEAD CITY  SUNNY     63  25  23 N22       30.19R
KINGMAN        SUNNY     49  19  30 N18G24    30.19R
$$

AZZ004>008-015-016-018-231700-
NORTH CENTRAL ARIZONA

CITY           SKY/WX    TMP DP  RH WIND       PRES   REMARKS
GRAND CANYON   SUNNY     38   7  27 N8G18     30.14R WCI  32
PRESCOTT       SUNNY     45  17  32 N16       30.14R
FLAGSTAFF      SUNNY     37  15  40 E3        30.10R
PAYSON         HAZE      46  25  42 W10       30.10R VSB 3/4
$$

AZZ009>014-017-231700-
NORTHEAST ARIZONA

CITY           SKY/WX    TMP DP  RH WIND       PRES   REMARKS
WINSLOW        MOSUNNY   46  19  34 NW22G29   30.10R
SAINT JOHNS    CLOUDY    43  25  49 W23G31    30.02R
SHOW LOW       MOSUNNY   39  23  52 NW20G28   30.09R WCI  30
$$

AZZ023-231700-
GREATER PHOENIX AREA

CITY           SKY/WX    TMP DP  RH WIND       PRES   REMARKS
PHOENIX        PTSUNNY   53  32  44 E6        30.05R
BUCKEYE          N/A     50  28  43 CALM      30.07R
GLENDALE       MOSUNNY   52  32  46 CALM      30.07R
LUKE AFB       MOSUNNY   52  31  45 N3        30.05R
DEER VALLEY    SUNNY     53  29  39 CALM      30.05R
SCOTTSDALE     SUNNY     54  33  45 CALM      30.06R
MESA-FALCON    MOSUNNY   50  30  46 NE7       30.05
MESA-GATEWAY   MOSUNNY   48  32  53 SE5       30.06R
CHANDLER       MOSUNNY   50  32  50 CALM      30.06R
$$

AZZ027-028-231700-
SOUTHWEST MARICOPA COUNTY AND PINAL COUNTY

CITY           SKY/WX    TMP DP  RH WIND       PRES   REMARKS
CASA GRANDE    MOSUNNY   52  28  40 MISG      30.06R
$$

AZZ503-504-507>509-231700-
SOUTHEAST ARIZONA

CITY           SKY/WX    TMP DP  RH WIND       PRES   REMARKS
TUCSON         SUNNY     51  32  48 S3        30.09R
DAVIS-MONTHAN  SUNNY     52  32  46 S3        30.07R
RYAN FIELD       N/A    N/A N/A N/A CALM      30.08R
NOGALES        SUNNY     53  33  46 S7        30.10R
SIERRA VISTA   SUNNY     56  25  30 W13       30.09R
DOUGLAS        MOSUNNY   48  30  49 CALM      30.08R
SAFFORD        SUNNY     57  26  30 NW18      30.00R
$$

AZZ020-021-025-026-031-231700-
SOUTHWEST ARIZONA

CITY           SKY/WX    TMP DP  RH WIND       PRES   REMARKS
YUMA           PTSUNNY   66  40  38 N9        30.08R
$$

CAZ031-033-041-043-047-048-061-231700-
SOUTHERN CALIFORNIA

CITY           SKY/WX    TMP DP  RH WIND       PRES   REMARKS
DOWNTOWN L.A.  MOSUNNY   59  51  75 E5        30.12R
L.A. AIRPORT   MOSUNNY   62  50  64 N6        30.13R
SAN DIEGO      PTSUNNY   60  50  69 CALM      30.11R
BURBANK        MOSUNNY   63  40  42 W6        30.16R
ONTARIO        MOSUNNY   66  29  24 NE35G45   30.10R
RIVERSIDE      SUNNY     66  35  31 N12G20    30.13R
PALM SPRINGS   MOSUNNY   69  28  21 NW8       30.20R
EL CENTRO NAS  SUNNY     59  45  59 SW7       30.11R
IMPERIAL       SUNNY     58  49  72 W5        30.09R
BLYTHE         MOSUNNY   65  30  27 N23       30.12R
NEEDLES        MOSUNNY   62  22  21 N17       30.17R
$$

NVZ020-UTZ003-231700-
SOUTHERN NEVADA-UTAH

CITY           SKY/WX    TMP DP  RH WIND       PRES   REMARKS
LAS VEGAS      MOSUNNY   56  17  21 NW14G22   30.22R
SALT LAKE CITY PTSUNNY   34  28  79 N5        30.19R WCI  30
$$

NMZ009-TXZ055-231700-
NEW MEXICO-WEST TEXAS

CITY           SKY/WX    TMP DP  RH WIND       PRES   REMARKS
ALBUQUERQUE    PTSUNNY   42  26  53 NW22G32   29.90R
EL PASO        MOSUNNY   58  23  26 W21G36    29.92R
$$


........................KEY........................
SKY/WX - SKY CONDITION/WEATHER
TMP    - TEMPERATURE IN FAHRENHEIT
DP     - DEW POINT IN FAHRENHEIT
RH     - RELATIVE HUMIDITY IN PERCENT
WIND   - DIRECTION AND SPEED IN MILES PER HOUR (MPH)
VRB    - VARIABLE WIND DIRECTION
PRES   - MEAN SEA LEVEL PRESSURE IN INCHES OF MERCURY
         F - FALLING PRESSURE   R - RISING PRESSURE
         S - STEADY PRESSURE
VSB    - VISIBILITY IN MILES
HX     - HEAT INDEX IN FAHRENHEIT
WCI    - WIND CHILL INDEX IN FAHRENHEIT
TC     - TEMPERATURE IN CELSIUS WHICH IS ALSO KNOWN AS
         TEMPERATURE IN CENTIGRADE
AFB    - AIR FORCE BASE
         LUKE AFB IS LUKE AIR FORCE BASE
         DAVIS-MONTHAN IS DAVIS-MONTHAN AIR FORCE BASE
NAS    - NAVAL AIR STATION
         EL CENTRO NAS IS EL CENTRO NAVAL AIR STATION
N/A    - NOT AVAILABLE


USA.gov is the U.S. government's official web portal to all federal, state and local government web resources and services.